Time,TemperatureF,DewpointF,PressureIn,WindDirection,WindDirectionDegrees,WindSpeedMPH,WindSpeedGustMPH,Humidity,HourlyPrecipIn,Conditions,Clouds,dailyrainin,SoftwareType,DateUTC
2013-01-16 00:00:00,21.6,10.2,28.97,SSE,159,2.7,3.1,61,0.00,,---,0.00,VWS V14.00,2013-01-16 06:00:00,
2013-01-16 00:05:00,21.6,10.2,28.97,SSE,159,0.0,0.0,61,0.00,,---,0.00,VWS V14.00,2013-01-16 06:05:00,
2013-01-16 00:10:00,21.4,10.0,29.03,SSE,159,2.2,4.0,61,0.00,,---,0.00,VWS V14.00,2013-01-16 06:10:00,
2013-01-16 00:15:00,21.4,10.0,29.03,SSE,159,3.1,3.1,61,0.00,,---,0.00,VWS V14.00,2013-01-16 06:15:00,
2013-01-16 00:20:00,21.2,9.9,29.03,SSE,159,0.0,0.0,61,0.00,,---,0.00,VWS V14.00,2013-01-16 06:20:00,
2013-01-16 00:25:00,21.2,9.9,29.18,SSE,159,0.0,2.7,61,0.00,,---,0.00,VWS V14.00,2013-01-16 06:25:00,
2013-01-16 00:30:00,21.2,9.9,29.18,SSE,159,2.2,2.7,61,0.00,,---,0.00,VWS V14.00,2013-01-16 06:30:00,
2013-01-16 00:35:00,21.2,9.9,29.18,SSE,159,0.0,0.0,61,0.00,,---,0.00,VWS V14.00,2013-01-16 06:35:00,
2013-01-16 00:40:00,21.2,9.9,29.03,SSE,159,0.0,0.0,61,0.00,,---,0.00,VWS V14.00,2013-01-16 06:40:00,
2013-01-16 00:46:00,21.0,9.3,29.03,SSE,159,0.0,0.0,60,0.00,,---,0.00,VWS V14.00,2013-01-16 06:46:00,
2013-01-16 00:51:00,20.7,9.0,29.09,SSE,159,0.0,0.0,60,0.00,,---,0.00,VWS V14.00,2013-01-16 06:51:00,
2013-01-16 00:56:00,20.7,9.0,29.09,SSE,159,0.0,0.0,60,0.00,,---,0.00,VWS V14.00,2013-01-16 06:56:00,
2013-01-16 01:01:00,20.5,8.8,29.09,SSE,159,0.0,0.0,60,0.00,,---,0.00,VWS V14.00,2013-01-16 07:01:00,
2013-01-16 01:06:00,20.5,8.8,29.21,SSE,159,0.0,0.0,60,0.00,,---,0.00,VWS V14.00,2013-01-16 07:06:00,
2013-01-16 01:11:00,20.3,8.6,29.21,SSE,159,0.0,0.0,60,0.00,,---,0.00,VWS V14.00,2013-01-16 07:11:00,
2013-01-16 01:16:00,20.5,9.2,29.21,SSE,159,2.7,2.7,61,0.00,,---,0.00,VWS V14.00,2013-01-16 07:16:00,
2013-01-16 01:21:00,20.8,9.5,29.15,SSE,159,2.2,4.0,61,0.00,,---,0.00,VWS V14.00,2013-01-16 07:21:00,
2013-01-16 01:27:00,21.2,10.2,29.15,SSE,159,4.0,4.0,62,0.00,,---,0.00,VWS V14.00,2013-01-16 07:27:00,
2013-01-16 01:32:00,21.4,10.4,29.15,SSE,159,0.0,2.2,62,0.00,,---,0.00,VWS V14.00,2013-01-16 07:32:00,
2013-01-16 01:37:00,21.7,10.7,29.09,SSE,159,4.0,4.0,62,0.00,,---,0.00,VWS V14.00,2013-01-16 07:37:00,
2013-01-16 01:42:00,21.9,10.9,29.09,SSE,149,2.7,2.7,62,0.00,,---,0.00,VWS V14.00,2013-01-16 07:42:00,
2013-01-16 01:47:00,22.1,11.4,29.09,SSE,156,3.1,3.1,63,0.00,,---,0.00,VWS V14.00,2013-01-16 07:47:00,
2013-01-16 01:52:00,22.3,11.2,29.23,SSE,165,3.6,4.0,62,0.00,,---,0.00,VWS V14.00,2013-01-16 07:52:00,
2013-01-16 01:57:00,22.3,11.2,29.23,SSE,150,0.0,0.0,62,0.00,,---,0.00,VWS V14.00,2013-01-16 07:57:00,
2013-01-16 02:02:00,22.1,11.1,29.23,SE,145,4.9,4.9,62,0.00,,---,0.00,VWS V14.00,2013-01-16 08:02:00,
2013-01-16 02:08:00,22.1,11.1,29.26,SSE,163,2.7,2.7,62,0.00,,---,0.00,VWS V14.00,2013-01-16 08:08:00,
2013-01-16 02:13:00,21.9,10.9,29.26,SSE,154,2.2,3.1,62,0.00,,---,0.00,VWS V14.00,2013-01-16 08:13:00,
2013-01-16 02:18:00,21.6,10.2,29.26,SE,144,0.0,3.6,61,0.00,,---,0.00,VWS V14.00,2013-01-16 08:18:00,
2013-01-16 02:23:00,21.4,10.0,29.15,SSE,147,3.6,4.0,61,0.00,,---,0.00,VWS V14.00,2013-01-16 08:23:00,
2013-01-16 02:28:00,21.2,10.2,29.15,SSW,197,2.7,3.1,62,0.00,,---,0.00,VWS V14.00,2013-01-16 08:28:00,
2013-01-16 02:33:00,21.2,10.2,29.15,SE,145,0.0,3.1,62,0.00,,---,0.00,VWS V14.00,2013-01-16 08:33:00,
2013-01-16 02:38:00,21.2,10.2,29.29,SE,144,2.2,2.2,62,0.00,,---,0.00,VWS V14.00,2013-01-16 08:38:00,
2013-01-16 02:43:00,21.2,10.2,29.29,SSE,157,0.0,0.0,62,0.00,,---,0.00,VWS V14.00,2013-01-16 08:43:00,
2013-01-16 02:48:00,21.2,10.2,29.29,SSE,160,2.2,3.1,62,0.00,,---,0.00,VWS V14.00,2013-01-16 08:48:00,
2013-01-16 02:53:00,21.0,10.1,29.32,SSE,160,0.0,0.0,62,0.00,,---,0.00,VWS V14.00,2013-01-16 08:53:00,
2013-01-16 02:58:00,21.0,10.4,29.32,SSE,160,2.7,2.7,63,0.00,,---,0.00,VWS V14.00,2013-01-16 08:58:00,
2013-01-16 03:04:00,20.8,10.2,29.32,SSE,160,2.7,2.7,63,0.00,,---,0.00,VWS V14.00,2013-01-16 09:04:00,
2013-01-16 03:09:00,20.5,9.9,29.18,SSE,160,0.0,0.0,63,0.00,,---,0.00,VWS V14.00,2013-01-16 09:09:00,
2013-01-16 03:14:00,20.1,9.2,29.18,SSE,160,0.0,0.0,62,0.00,,---,0.00,VWS V14.00,2013-01-16 09:14:00,
2013-01-16 03:19:00,19.8,8.9,29.18,SSE,160,0.0,0.0,62,0.00,,---,0.00,VWS V14.00,2013-01-16 09:19:00,
2013-01-16 03:24:00,19.6,8.7,29.35,SSE,160,0.0,0.0,62,0.00,,---,0.00,VWS V14.00,2013-01-16 09:24:00,
2013-01-16 03:29:00,19.2,8.7,29.35,SE,143,2.7,2.7,63,0.00,,---,0.00,VWS V14.00,2013-01-16 09:29:00,
2013-01-16 03:34:00,19.2,8.7,29.35,SSE,147,2.7,2.7,63,0.00,,---,0.00,VWS V14.00,2013-01-16 09:34:00,
2013-01-16 03:39:00,19.2,9.1,29.35,SSE,148,2.7,2.7,64,0.00,,---,0.00,VWS V14.00,2013-01-16 09:39:00,
2013-01-16 03:44:00,19.4,9.2,29.35,SE,146,0.0,0.0,64,0.00,,---,0.00,VWS V14.00,2013-01-16 09:44:00,
2013-01-16 03:50:00,19.6,9.4,29.35,SE,146,0.0,0.0,64,0.00,,---,0.00,VWS V14.00,2013-01-16 09:50:00,
2013-01-16 03:55:00,19.6,9.7,29.18,SSE,147,3.1,3.1,65,0.00,,---,0.00,VWS V14.00,2013-01-16 09:55:00,
2013-01-16 04:00:00,19.8,9.9,29.18,SSE,147,2.2,2.7,65,0.00,,---,0.00,VWS V14.00,2013-01-16 10:00:00,
2013-01-16 04:05:00,19.8,9.9,29.18,SSE,147,0.0,0.0,65,0.00,,---,0.00,VWS V14.00,2013-01-16 10:05:00,
2013-01-16 04:10:00,19.9,10.1,29.32,SSE,159,0.0,0.0,65,0.00,,---,0.00,VWS V14.00,2013-01-16 10:10:00,
2013-01-16 04:15:00,20.1,10.6,29.32,SE,146,0.0,0.0,66,0.00,,---,0.00,VWS V14.00,2013-01-16 10:15:00,
2013-01-16 04:20:00,20.1,10.6,29.32,SE,146,0.0,0.0,66,0.00,,---,0.00,VWS V14.00,2013-01-16 10:20:00,
2013-01-16 04:25:00,20.3,11.1,29.35,SSW,205,2.2,3.6,67,0.00,,---,0.00,VWS V14.00,2013-01-16 10:25:00,
2013-01-16 04:30:00,20.8,12.0,29.35,South,187,0.0,0.0,68,0.00,,---,0.00,VWS V14.00,2013-01-16 10:30:00,
2013-01-16 04:36:00,21.2,12.6,29.35,SSE,163,0.0,2.2,69,0.00,,---,0.00,VWS V14.00,2013-01-16 10:36:00,
2013-01-16 04:41:00,21.4,12.8,29.21,SSE,152,0.0,0.0,69,0.00,,---,0.00,VWS V14.00,2013-01-16 10:41:00,
2013-01-16 04:46:00,21.4,12.8,29.21,SSE,152,0.0,2.2,69,0.00,,---,0.00,VWS V14.00,2013-01-16 10:46:00,
2013-01-16 04:51:00,21.4,12.5,29.35,SSE,152,0.0,0.0,68,0.00,,---,0.00,VWS V14.00,2013-01-16 10:51:00,
2013-01-16 04:56:00,21.4,12.5,29.35,South,172,3.6,3.6,68,0.00,,---,0.00,VWS V14.00,2013-01-16 10:56:00,
2013-01-16 05:01:00,21.4,12.8,29.35,South,172,0.0,3.6,69,0.00,,---,0.00,VWS V14.00,2013-01-16 11:01:00,
2013-01-16 05:06:00,21.6,13.0,29.44,South,190,0.0,3.6,69,0.00,,---,0.00,VWS V14.00,2013-01-16 11:06:00,
2013-01-16 05:12:00,21.7,13.1,29.44,SSW,200,2.7,4.0,69,0.00,,---,0.00,VWS V14.00,2013-01-16 11:12:00,
2013-01-16 05:17:00,21.7,13.1,29.44,South,191,0.0,0.0,69,0.00,,---,0.00,VWS V14.00,2013-01-16 11:17:00,
2013-01-16 05:22:00,21.7,13.1,29.23,South,191,2.7,2.7,69,0.00,,---,0.00,VWS V14.00,2013-01-16 11:22:00,
2013-01-16 05:27:00,21.6,13.0,29.23,SSW,192,0.0,0.0,69,0.00,,---,0.00,VWS V14.00,2013-01-16 11:27:00,
2013-01-16 05:32:00,21.6,13.0,29.23,SSW,196,0.0,2.7,69,0.00,,---,0.00,VWS V14.00,2013-01-16 11:32:00,
2013-01-16 05:37:00,21.4,12.8,29.41,SSW,196,2.7,2.7,69,0.00,,---,0.00,VWS V14.00,2013-01-16 11:37:00,
2013-01-16 05:42:00,21.4,12.8,29.41,SSW,196,2.7,2.7,69,0.00,,---,0.00,VWS V14.00,2013-01-16 11:42:00,
2013-01-16 05:48:00,21.6,13.0,29.41,SSW,207,3.1,3.6,69,0.00,,---,0.00,VWS V14.00,2013-01-16 11:48:00,
2013-01-16 05:53:00,21.7,13.5,29.53,SSW,197,0.0,0.0,70,0.00,,---,0.00,VWS V14.00,2013-01-16 11:53:00,
2013-01-16 05:58:00,21.9,13.6,29.53,SSW,195,2.2,2.2,70,0.00,,---,0.00,VWS V14.00,2013-01-16 11:58:00,
2013-01-16 06:03:00,21.9,13.6,29.53,South,187,3.6,3.6,70,0.00,,---,0.00,VWS V14.00,2013-01-16 12:03:00,
2013-01-16 06:08:00,21.9,13.3,29.26,South,188,0.0,0.0,69,0.00,,---,0.00,VWS V14.00,2013-01-16 12:08:00,
2013-01-16 06:13:00,22.1,13.5,29.26,SW,217,3.6,3.6,69,0.00,,---,0.00,VWS V14.00,2013-01-16 12:13:00,
2013-01-16 06:18:00,22.3,13.7,29.26,SW,218,2.7,3.1,69,0.00,,---,0.00,VWS V14.00,2013-01-16 12:18:00,
2013-01-16 06:23:00,22.5,13.8,29.47,SW,229,5.8,5.8,69,0.00,,---,0.00,VWS V14.00,2013-01-16 12:23:00,
2013-01-16 06:28:00,22.6,14.0,29.47,SW,221,4.0,5.4,69,0.00,,---,0.00,VWS V14.00,2013-01-16 12:28:00,
2013-01-16 06:34:00,22.8,13.9,29.47,SW,223,0.0,2.2,68,0.00,,---,0.00,VWS V14.00,2013-01-16 12:34:00,
2013-01-16 06:39:00,22.8,13.9,29.56,SW,223,2.2,3.6,68,0.00,,---,0.00,VWS V14.00,2013-01-16 12:39:00,
2013-01-16 06:44:00,22.8,13.5,29.56,SW,223,0.0,2.7,67,0.00,,---,0.00,VWS V14.00,2013-01-16 12:44:00,
2013-01-16 06:49:00,22.8,13.5,29.56,SW,223,0.0,2.2,67,0.00,,---,0.00,VWS V14.00,2013-01-16 12:49:00,
2013-01-16 06:54:00,22.6,13.4,29.29,SW,223,0.0,0.0,67,0.00,,---,0.00,VWS V14.00,2013-01-16 12:54:00,
2013-01-16 06:59:00,22.3,12.7,29.29,SW,223,0.0,0.0,66,0.00,,---,0.00,VWS V14.00,2013-01-16 12:59:00,
2013-01-16 07:04:00,21.9,12.3,29.29,SW,223,0.0,0.0,66,0.00,,---,0.00,VWS V14.00,2013-01-16 13:04:00,
2013-01-16 07:09:00,21.7,12.1,29.38,SW,223,0.0,0.0,66,0.00,,---,0.00,VWS V14.00,2013-01-16 13:09:00,
2013-01-16 07:14:00,21.4,11.8,29.38,SW,223,0.0,0.0,66,0.00,,---,0.00,VWS V14.00,2013-01-16 13:14:00,
2013-01-16 07:19:00,21.2,11.6,29.38,SW,223,0.0,0.0,66,0.00,,---,0.00,VWS V14.00,2013-01-16 13:19:00,
2013-01-16 07:24:00,21.2,11.6,29.47,SW,223,0.0,0.0,66,0.00,,---,0.00,VWS V14.00,2013-01-16 13:24:00,
2013-01-16 07:29:00,21.0,11.5,29.47,SW,223,0.0,0.0,66,0.00,,---,0.00,VWS V14.00,2013-01-16 13:29:00,
2013-01-16 07:35:00,20.8,11.3,29.47,SW,223,0.0,0.0,66,0.00,,---,0.00,VWS V14.00,2013-01-16 13:35:00,
2013-01-16 07:40:00,20.7,11.1,29.21,SW,223,0.0,0.0,66,0.00,,---,0.00,VWS V14.00,2013-01-16 13:40:00,
2013-01-16 07:45:00,20.5,10.9,29.21,SW,223,0.0,0.0,66,0.00,,---,0.00,VWS V14.00,2013-01-16 13:45:00,
2013-01-16 07:50:00,20.3,10.8,29.21,SW,223,0.0,0.0,66,0.00,,---,0.00,VWS V14.00,2013-01-16 13:50:00,
2013-01-16 07:55:00,20.3,10.8,29.32,SW,223,0.0,0.0,66,0.00,,---,0.00,VWS V14.00,2013-01-16 13:55:00,
2013-01-16 08:00:00,20.3,11.1,29.32,SW,223,0.0,0.0,67,0.00,,---,0.00,VWS V14.00,2013-01-16 14:00:00,
2013-01-16 08:05:00,20.7,11.4,29.32,SW,223,0.0,0.0,67,0.00,,---,0.00,VWS V14.00,2013-01-16 14:05:00,
2013-01-16 08:10:00,21.0,12.1,29.47,SW,223,0.0,0.0,68,0.00,,---,0.00,VWS V14.00,2013-01-16 14:10:00,
2013-01-16 08:15:00,21.6,12.6,29.47,SW,223,0.0,0.0,68,0.00,,---,0.00,VWS V14.00,2013-01-16 14:15:00,
2013-01-16 08:20:00,22.3,13.7,29.47,SW,223,0.0,0.0,69,0.00,,---,0.00,VWS V14.00,2013-01-16 14:20:00,
2013-01-16 08:26:00,22.8,14.2,29.26,SW,222,0.0,0.0,69,0.00,,---,0.00,VWS V14.00,2013-01-16 14:26:00,
2013-01-16 08:31:00,23.2,14.5,29.26,SW,222,0.0,0.0,69,0.00,,---,0.00,VWS V14.00,2013-01-16 14:31:00,
2013-01-16 08:36:00,23.7,15.4,29.53,SW,222,0.0,0.0,70,0.00,,---,0.00,VWS V14.00,2013-01-16 14:36:00,
2013-01-16 08:41:00,24.1,15.7,29.53,SW,216,2.2,2.2,70,0.00,,---,0.00,VWS V14.00,2013-01-16 14:41:00,
2013-01-16 08:46:00,24.6,16.6,29.53,SW,216,0.0,0.0,71,0.00,,---,0.00,VWS V14.00,2013-01-16 14:46:00,
2013-01-16 08:51:00,25.2,17.1,29.68,SW,216,0.0,0.0,71,0.00,,---,0.00,VWS V14.00,2013-01-16 14:51:00,
2013-01-16 08:56:00,25.3,17.3,29.68,SW,216,0.0,0.0,71,0.00,,---,0.00,VWS V14.00,2013-01-16 14:56:00,
2013-01-16 09:01:00,25.9,17.8,29.68,SW,216,0.0,0.0,71,0.00,,---,0.00,VWS V14.00,2013-01-16 15:01:00,
2013-01-16 09:06:00,26.1,18.0,29.38,SW,215,2.7,3.6,71,0.00,,---,0.00,VWS V14.00,2013-01-16 15:06:00,
2013-01-16 09:12:00,26.4,18.3,29.38,SSW,212,2.2,3.1,71,0.00,,---,0.00,VWS V14.00,2013-01-16 15:12:00,
2013-01-16 09:17:00,26.6,18.5,29.38,South,188,4.5,4.5,71,0.00,,---,0.00,VWS V14.00,2013-01-16 15:17:00,
2013-01-16 09:22:00,27.0,18.8,29.62,South,173,3.6,3.6,71,0.00,,---,0.00,VWS V14.00,2013-01-16 15:22:00,
2013-01-16 09:27:00,27.3,19.2,29.62,ESE,123,2.2,2.2,71,0.00,,---,0.00,VWS V14.00,2013-01-16 15:27:00,
2013-01-16 09:32:00,27.5,19.4,29.62,South,183,2.2,2.7,71,0.00,,---,0.00,VWS V14.00,2013-01-16 15:32:00,
2013-01-16 09:37:00,27.9,19.7,29.85,SE,132,0.0,3.1,71,0.00,,---,0.00,VWS V14.00,2013-01-16 15:37:00,
2013-01-16 09:42:00,28.2,20.0,29.85,SSE,163,2.2,2.2,71,0.00,,---,0.00,VWS V14.00,2013-01-16 15:42:00,
2013-01-16 09:47:00,28.6,20.0,29.85,SSE,149,2.7,2.7,70,0.00,,---,0.00,VWS V14.00,2013-01-16 15:47:00,
2013-01-16 09:52:00,28.9,20.4,29.47,SSE,168,4.0,4.0,70,0.00,,---,0.00,VWS V14.00,2013-01-16 15:52:00,
2013-01-16 09:57:00,29.8,21.6,29.47,SSE,160,3.1,3.1,71,0.00,,---,0.00,VWS V14.00,2013-01-16 15:57:00,
2013-01-16 10:02:00,30.7,22.5,29.47,SE,142,2.7,4.0,71,0.00,,---,0.00,VWS V14.00,2013-01-16 16:02:00,
2013-01-16 10:07:00,31.8,23.5,29.65,South,190,2.7,4.9,71,0.00,,---,0.00,VWS V14.00,2013-01-16 16:07:00,
2013-01-16 10:12:00,32.7,24.0,29.65,SW,217,2.7,4.0,70,0.00,,---,0.00,VWS V14.00,2013-01-16 16:12:00,
2013-01-16 10:18:00,33.6,24.9,29.65,WSW,237,4.0,4.9,70,0.00,,---,0.00,VWS V14.00,2013-01-16 16:18:00,
2013-01-16 10:23:00,34.5,25.1,29.85,SSW,212,2.7,4.0,68,0.00,,---,0.00,VWS V14.00,2013-01-16 16:23:00,
2013-01-16 10:28:00,35.6,25.0,29.85,SW,226,3.6,4.0,65,0.00,,---,0.00,VWS V14.00,2013-01-16 16:28:00,
2013-01-16 10:33:00,36.3,24.6,29.85,SW,229,4.0,4.0,62,0.00,,---,0.00,VWS V14.00,2013-01-16 16:33:00,
2013-01-16 10:38:00,37.4,24.4,29.65,WSW,238,3.1,4.9,59,0.00,,---,0.00,VWS V14.00,2013-01-16 16:38:00,
2013-01-16 10:43:00,38.5,24.6,29.65,West,260,4.0,5.4,57,0.00,,---,0.00,VWS V14.00,2013-01-16 16:43:00,
2013-01-16 10:48:00,39.4,24.6,29.65,West,267,3.6,4.0,55,0.00,,---,0.00,VWS V14.00,2013-01-16 16:48:00,
2013-01-16 10:53:00,40.3,25.0,29.62,SW,225,2.7,3.6,54,0.00,,---,0.00,VWS V14.00,2013-01-16 16:53:00,
2013-01-16 10:58:00,41.2,25.4,29.62,West,263,3.1,3.1,53,0.00,,---,0.00,VWS V14.00,2013-01-16 16:58:00,
2013-01-16 11:03:00,42.1,24.8,29.62,West,267,3.6,3.6,50,0.00,,---,0.00,VWS V14.00,2013-01-16 17:03:00,
2013-01-16 11:08:00,42.4,24.6,29.80,West,266,3.6,4.0,49,0.00,,---,0.00,VWS V14.00,2013-01-16 17:08:00,
2013-01-16 11:13:00,43.0,25.1,29.80,West,268,4.0,4.0,49,0.00,,---,0.00,VWS V14.00,2013-01-16 17:13:00,
2013-01-16 11:18:00,43.7,25.3,29.80,West,278,7.2,8.7,48,0.00,,---,0.00,VWS V14.00,2013-01-16 17:18:00,
2013-01-16 11:24:00,44.2,25.3,29.94,NW,309,3.1,3.6,47,0.00,,---,0.00,VWS V14.00,2013-01-16 17:24:00,
2013-01-16 11:29:00,44.6,24.6,29.94,WSW,254,3.6,4.9,45,0.00,,---,0.00,VWS V14.00,2013-01-16 17:29:00,
2013-01-16 11:34:00,44.8,24.8,29.94,WNW,283,2.7,3.6,45,0.00,,---,0.00,VWS V14.00,2013-01-16 17:34:00,
2013-01-16 11:39:00,45.5,25.4,30.09,WNW,283,0.0,0.0,45,0.00,,---,0.00,VWS V14.00,2013-01-16 17:39:00,
2013-01-16 11:44:00,46.0,25.4,30.09,West,281,5.8,5.8,44,0.00,,---,0.00,VWS V14.00,2013-01-16 17:44:00,
2013-01-16 11:49:00,46.4,25.1,30.09,NNW,337,3.6,3.6,43,0.00,,---,0.00,VWS V14.00,2013-01-16 17:49:00,
2013-01-16 11:54:00,46.8,24.9,29.77,NNW,335,0.0,0.0,42,0.00,,---,0.00,VWS V14.00,2013-01-16 17:54:00,
2013-01-16 11:59:00,47.3,25.4,29.77,NNW,333,4.0,5.4,42,0.00,,---,0.00,VWS V14.00,2013-01-16 17:59:00,
2013-01-16 12:05:00,47.7,25.1,29.77,WSW,254,6.3,7.6,41,0.00,,---,0.00,VWS V14.00,2013-01-16 18:05:00,
2013-01-16 12:10:00,48.0,25.5,29.74,NW,310,3.1,6.3,41,0.00,,---,0.00,VWS V14.00,2013-01-16 18:10:00,
2013-01-16 12:15:00,48.4,25.8,29.74,NW,319,5.4,8.3,41,0.00,,---,0.00,VWS V14.00,2013-01-16 18:15:00,
2013-01-16 12:20:00,48.7,25.5,29.74,NW,322,5.4,5.4,40,0.00,,---,0.00,VWS V14.00,2013-01-16 18:20:00,
2013-01-16 12:25:00,49.3,26.0,29.83,NW,314,5.4,5.8,40,0.00,,---,0.00,VWS V14.00,2013-01-16 18:25:00,
2013-01-16 12:30:00,49.8,26.5,29.83,NW,306,5.4,5.4,40,0.00,,---,0.00,VWS V14.00,2013-01-16 18:30:00,
2013-01-16 12:35:00,50.2,26.2,29.94,WNW,296,5.8,6.3,39,0.00,,---,0.00,VWS V14.00,2013-01-16 18:35:00,
2013-01-16 12:40:00,50.4,25.7,29.94,WSW,255,5.8,5.8,38,0.00,,---,0.00,VWS V14.00,2013-01-16 18:40:00,
2013-01-16 12:46:00,50.7,26.0,29.94,NW,314,5.8,7.6,38,0.00,,---,0.00,VWS V14.00,2013-01-16 18:46:00,
2013-01-16 12:51:00,51.1,26.4,30.00,WNW,296,3.1,8.1,38,0.00,,---,0.00,VWS V14.00,2013-01-16 18:51:00,
2013-01-16 12:56:00,51.4,26.7,30.00,WNW,283,5.4,5.4,38,0.00,,---,0.00,VWS V14.00,2013-01-16 18:56:00,
2013-01-16 13:01:00,51.8,26.4,30.00,WSW,257,3.6,3.6,37,0.00,,---,0.00,VWS V14.00,2013-01-16 19:01:00,
2013-01-16 13:06:00,52.0,26.5,30.09,WNW,294,3.1,5.4,37,0.00,,---,0.00,VWS V14.00,2013-01-16 19:06:00,
2013-01-16 13:11:00,52.2,26.7,30.09,NNW,330,2.2,3.6,37,0.00,,---,0.00,VWS V14.00,2013-01-16 19:11:00,
2013-01-16 13:16:00,52.7,27.2,30.09,NW,316,3.6,5.4,37,0.00,,---,0.00,VWS V14.00,2013-01-16 19:16:00,
2013-01-16 13:21:00,52.9,27.3,30.15,NNW,331,4.0,4.0,37,0.00,,---,0.00,VWS V14.00,2013-01-16 19:21:00,
2013-01-16 13:26:00,52.9,27.3,30.15,NW,322,6.3,10.1,37,0.00,,---,0.00,VWS V14.00,2013-01-16 19:26:00,
2013-01-16 13:31:00,52.7,27.2,30.15,NW,307,3.6,5.8,37,0.00,,---,0.00,VWS V14.00,2013-01-16 19:31:00,
2013-01-16 13:37:00,53.1,27.5,30.18,NW,307,7.6,7.6,37,0.00,,---,0.00,VWS V14.00,2013-01-16 19:37:00,
2013-01-16 13:42:00,53.2,27.7,30.18,West,278,5.4,10.1,37,0.00,,---,0.00,VWS V14.00,2013-01-16 19:42:00,
2013-01-16 13:47:00,53.6,27.3,30.18,NW,304,3.6,5.4,36,0.00,,---,0.00,VWS V14.00,2013-01-16 19:47:00,
2013-01-16 13:52:00,53.8,27.5,30.21,NW,326,6.3,6.3,36,0.00,,---,0.00,VWS V14.00,2013-01-16 19:52:00,
2013-01-16 13:57:00,54.1,27.8,30.21,WNW,299,4.9,5.4,36,0.00,,---,0.00,VWS V14.00,2013-01-16 19:57:00,
2013-01-16 14:02:00,54.3,28.0,30.21,NW,314,5.8,5.8,36,0.00,,---,0.00,VWS V14.00,2013-01-16 20:02:00,
2013-01-16 14:11:00,0.0,0.0,30.24,NNW,327,3.1,3.1,0,0.00,,---,0.00,VWS V14.00,2013-01-16 20:11:00,
2013-01-16 14:17:00,54.7,28.3,30.24,NW,309,5.4,8.1,36,0.00,,---,0.00,VWS V14.00,2013-01-16 20:17:00,
2013-01-16 14:22:00,54.9,28.4,30.27,WNW,299,3.6,6.3,36,0.00,,---,0.00,VWS V14.00,2013-01-16 20:22:00,
2013-01-16 14:27:00,55.0,28.6,30.27,NW,318,5.8,6.3,36,0.00,,---,0.00,VWS V14.00,2013-01-16 20:27:00,
2013-01-16 14:32:00,55.6,28.4,30.27,NNW,336,5.4,5.8,35,0.00,,---,0.00,VWS V14.00,2013-01-16 20:32:00,
2013-01-16 14:37:00,55.9,28.7,30.24,West,261,2.7,2.7,35,0.00,,---,0.00,VWS V14.00,2013-01-16 20:37:00,
2013-01-16 14:42:00,56.1,28.9,30.24,NW,317,2.7,3.6,35,0.00,,---,0.00,VWS V14.00,2013-01-16 20:42:00,
2013-01-16 14:47:00,56.1,28.9,30.24,WNW,296,5.4,5.4,35,0.00,,---,0.00,VWS V14.00,2013-01-16 20:47:00,
2013-01-16 14:52:00,55.9,28.7,30.21,West,266,4.0,8.3,35,0.00,,---,0.00,VWS V14.00,2013-01-16 20:52:00,
2013-01-16 14:57:00,55.9,28.7,30.21,West,267,5.4,5.4,35,0.00,,---,0.00,VWS V14.00,2013-01-16 20:57:00,
2013-01-16 15:02:00,56.1,28.9,30.21,NW,308,5.8,6.7,35,0.00,,---,0.00,VWS V14.00,2013-01-16 21:02:00,
2013-01-16 15:07:00,56.3,29.0,30.21,West,263,2.7,4.0,35,0.00,,---,0.00,VWS V14.00,2013-01-16 21:07:00,
2013-01-16 15:13:00,56.7,29.3,30.21,WNW,283,3.1,4.0,35,0.00,,---,0.00,VWS V14.00,2013-01-16 21:13:00,
2013-01-16 15:18:00,56.7,29.3,30.21,West,277,5.8,5.8,35,0.00,,---,0.00,VWS V14.00,2013-01-16 21:18:00,
2013-01-16 15:23:00,56.7,29.3,30.27,NW,314,3.6,7.6,35,0.00,,---,0.00,VWS V14.00,2013-01-16 21:23:00,
2013-01-16 15:28:00,56.7,28.6,30.27,NNW,337,4.0,6.3,34,0.00,,---,0.00,VWS V14.00,2013-01-16 21:28:00,
2013-01-16 15:33:00,56.5,29.2,30.27,NW,315,2.7,6.3,35,0.00,,---,0.00,VWS V14.00,2013-01-16 21:33:00,
2013-01-16 15:38:00,56.5,29.2,30.30,NW,317,7.6,7.6,35,0.00,,---,0.00,VWS V14.00,2013-01-16 21:38:00,
2013-01-16 15:43:00,56.3,29.0,30.30,SSW,197,3.6,3.6,35,0.00,,---,0.00,VWS V14.00,2013-01-16 21:43:00,
2013-01-16 15:48:00,56.1,28.9,30.30,NW,311,6.3,8.1,35,0.00,,---,0.00,VWS V14.00,2013-01-16 21:48:00,
2013-01-16 15:54:00,55.9,28.7,30.36,WNW,301,3.1,5.4,35,0.00,,---,0.00,VWS V14.00,2013-01-16 21:54:00,
2013-01-16 15:59:00,55.9,28.7,30.36,WNW,294,2.7,5.8,35,0.00,,---,0.00,VWS V14.00,2013-01-16 21:59:00,
2013-01-16 16:04:00,55.8,27.8,30.36,WNW,303,3.6,6.7,34,0.00,,---,0.00,VWS V14.00,2013-01-16 22:04:00,
2013-01-16 16:09:00,55.6,27.7,30.45,NW,326,4.0,4.0,34,0.00,,---,0.00,VWS V14.00,2013-01-16 22:09:00,
2013-01-16 16:14:00,55.2,28.1,30.45,NW,304,2.7,4.0,35,0.00,,---,0.00,VWS V14.00,2013-01-16 22:14:00,
2013-01-16 16:19:00,54.7,27.6,30.45,NW,311,3.6,3.6,35,0.00,,---,0.00,VWS V14.00,2013-01-16 22:19:00,
2013-01-16 16:24:00,54.3,27.3,30.53,West,272,3.1,3.6,35,0.00,,---,0.00,VWS V14.00,2013-01-16 22:24:00,
2013-01-16 16:29:00,54.0,27.0,30.53,WNW,287,6.3,6.3,35,0.00,,---,0.00,VWS V14.00,2013-01-16 22:29:00,
2013-01-16 16:34:00,53.8,26.8,30.53,WNW,290,3.6,6.3,35,0.00,,---,0.00,VWS V14.00,2013-01-16 22:34:00,
2013-01-16 16:39:00,53.4,27.1,30.53,WNW,300,2.2,3.6,36,0.00,,---,0.00,VWS V14.00,2013-01-16 22:39:00,
2013-01-16 16:45:00,53.1,26.8,30.53,West,263,2.7,4.0,36,0.00,,---,0.00,VWS V14.00,2013-01-16 22:45:00,
2013-01-16 16:50:00,52.9,26.7,30.53,NW,304,2.2,3.1,36,0.00,,---,0.00,VWS V14.00,2013-01-16 22:50:00,
2013-01-16 16:55:00,52.5,26.4,30.53,NW,304,3.6,5.8,36,0.00,,---,0.00,VWS V14.00,2013-01-16 22:55:00,
2013-01-16 17:00:00,52.2,26.0,30.53,NW,304,2.7,2.7,36,0.00,,---,0.00,VWS V14.00,2013-01-16 23:00:00,
2013-01-16 17:05:00,51.6,25.6,30.53,WNW,299,0.0,0.0,36,0.00,,---,0.00,VWS V14.00,2013-01-16 23:05:00,
2013-01-16 17:10:00,51.3,25.2,30.50,WNW,299,0.0,2.7,36,0.00,,---,0.00,VWS V14.00,2013-01-16 23:10:00,
2013-01-16 17:15:00,50.9,25.6,30.50,WNW,299,2.7,2.7,37,0.00,,---,0.00,VWS V14.00,2013-01-16 23:15:00,
2013-01-16 17:20:00,50.5,25.2,30.59,WNW,299,2.7,2.7,37,0.00,,---,0.00,VWS V14.00,2013-01-16 23:20:00,
2013-01-16 17:25:00,50.2,24.9,30.59,WNW,300,0.0,2.7,37,0.00,,---,0.00,VWS V14.00,2013-01-16 23:25:00,
2013-01-16 17:30:00,49.6,24.5,30.59,WNW,300,0.0,0.0,37,0.00,,---,0.00,VWS V14.00,2013-01-16 23:30:00,
2013-01-16 17:36:00,49.1,24.0,30.65,WNW,300,0.0,0.0,37,0.00,,---,0.00,VWS V14.00,2013-01-16 23:36:00,
2013-01-16 17:41:00,48.4,23.3,30.65,WNW,282,0.0,0.0,37,0.00,,---,0.00,VWS V14.00,2013-01-16 23:41:00,
2013-01-16 17:46:00,47.8,23.5,30.65,WNW,282,0.0,0.0,38,0.00,,---,0.00,VWS V14.00,2013-01-16 23:46:00,
2013-01-16 17:51:00,47.1,22.8,30.65,WNW,282,0.0,0.0,38,0.00,,---,0.00,VWS V14.00,2013-01-16 23:51:00,
2013-01-16 17:56:00,46.4,22.2,30.65,WNW,282,0.0,0.0,38,0.00,,---,0.00,VWS V14.00,2013-01-16 23:56:00,
2013-01-16 18:01:00,45.9,22.3,30.65,WNW,282,0.0,0.0,39,0.00,,---,0.00,VWS V14.00,2013-01-17 00:01:00,
2013-01-16 18:06:00,45.3,21.8,30.68,WNW,282,0.0,0.0,39,0.00,,---,0.00,VWS V14.00,2013-01-17 00:06:00,
2013-01-16 18:11:00,44.6,21.2,30.68,WNW,282,0.0,0.0,39,0.00,,---,0.00,VWS V14.00,2013-01-17 00:11:00,
2013-01-16 18:16:00,44.1,21.3,30.68,WNW,282,0.0,0.0,40,0.00,,---,0.00,VWS V14.00,2013-01-17 00:16:00,
2013-01-16 18:21:00,43.7,21.6,30.68,WNW,282,0.0,0.0,41,0.00,,---,0.00,VWS V14.00,2013-01-17 00:21:00,
2013-01-16 18:26:00,43.2,21.1,30.68,WNW,282,0.0,0.0,41,0.00,,---,0.00,VWS V14.00,2013-01-17 00:26:00,
2013-01-16 18:32:00,42.4,20.4,30.68,WNW,282,0.0,0.0,41,0.00,,---,0.00,VWS V14.00,2013-01-17 00:32:00,
2013-01-16 18:37:00,41.9,20.5,30.62,WNW,282,0.0,0.0,42,0.00,,---,0.00,VWS V14.00,2013-01-17 00:37:00,
2013-01-16 18:42:00,42.1,21.8,30.62,WNW,282,0.0,0.0,44,0.00,,---,0.00,VWS V14.00,2013-01-17 00:42:00,
2013-01-16 18:47:00,41.7,21.4,30.62,WNW,282,0.0,0.0,44,0.00,,---,0.00,VWS V14.00,2013-01-17 00:47:00,
2013-01-16 18:52:00,41.2,20.4,30.50,WNW,282,0.0,0.0,43,0.00,,---,0.00,VWS V14.00,2013-01-17 00:52:00,
2013-01-16 18:57:00,40.5,20.3,30.50,WNW,282,0.0,0.0,44,0.00,,---,0.00,VWS V14.00,2013-01-17 00:57:00,
2013-01-16 19:02:00,39.7,19.6,30.50,WNW,282,0.0,0.0,44,0.00,,---,0.00,VWS V14.00,2013-01-17 01:02:00,
2013-01-16 19:07:00,38.8,18.8,30.47,WNW,282,0.0,0.0,44,0.00,,---,0.00,VWS V14.00,2013-01-17 01:07:00,
2013-01-16 19:12:00,38.3,18.3,30.47,WNW,282,0.0,0.0,44,0.00,,---,0.00,VWS V14.00,2013-01-17 01:12:00,
2013-01-16 19:17:00,37.6,18.2,30.47,WNW,282,0.0,0.0,45,0.00,,---,0.00,VWS V14.00,2013-01-17 01:17:00,
2013-01-16 19:22:00,37.0,18.2,30.39,WNW,282,0.0,0.0,46,0.00,,---,0.00,VWS V14.00,2013-01-17 01:22:00,
2013-01-16 19:27:00,36.5,17.7,30.39,WNW,282,0.0,0.0,46,0.00,,---,0.00,VWS V14.00,2013-01-17 01:27:00,
2013-01-16 19:33:00,36.1,17.9,30.39,WNW,282,0.0,0.0,47,0.00,,---,0.00,VWS V14.00,2013-01-17 01:33:00,
2013-01-16 19:38:00,35.6,17.9,30.33,WNW,282,0.0,0.0,48,0.00,,---,0.00,VWS V14.00,2013-01-17 01:38:00,
2013-01-16 19:43:00,35.2,18.0,30.33,WNW,282,0.0,0.0,49,0.00,,---,0.00,VWS V14.00,2013-01-17 01:43:00,
2013-01-16 19:48:00,34.9,18.1,30.33,WNW,282,0.0,0.0,50,0.00,,---,0.00,VWS V14.00,2013-01-17 01:48:00,
2013-01-16 19:53:00,34.5,17.8,30.33,WNW,282,0.0,0.0,50,0.00,,---,0.00,VWS V14.00,2013-01-17 01:53:00,
2013-01-16 19:58:00,34.5,17.8,30.33,WNW,282,0.0,0.0,50,0.00,,---,0.00,VWS V14.00,2013-01-17 01:58:00,
2013-01-16 20:03:00,34.3,18.1,30.33,WNW,282,0.0,0.0,51,0.00,,---,0.00,VWS V14.00,2013-01-17 02:03:00,
2013-01-16 20:08:00,34.0,17.8,30.33,WNW,282,0.0,0.0,51,0.00,,---,0.00,VWS V14.00,2013-01-17 02:08:00,
2013-01-16 20:13:00,34.0,17.8,30.33,WNW,282,0.0,0.0,51,0.00,,---,0.00,VWS V14.00,2013-01-17 02:13:00,
2013-01-16 20:18:00,34.0,18.2,30.33,WNW,282,0.0,0.0,52,0.00,,---,0.00,VWS V14.00,2013-01-17 02:18:00,
2013-01-16 20:23:00,34.0,18.2,30.50,WNW,282,0.0,0.0,52,0.00,,---,0.00,VWS V14.00,2013-01-17 02:23:00,
2013-01-16 20:28:00,34.5,19.6,30.50,WNW,282,0.0,0.0,54,0.00,,---,0.00,VWS V14.00,2013-01-17 02:28:00,
2013-01-16 20:34:00,35.6,21.9,30.50,WNW,282,0.0,0.0,57,0.00,,---,0.00,VWS V14.00,2013-01-17 02:34:00,
2013-01-16 20:39:00,36.5,22.7,30.59,WNW,283,0.0,0.0,57,0.00,,---,0.00,VWS V14.00,2013-01-17 02:39:00,
2013-01-16 20:44:00,37.2,23.0,30.59,WNW,294,3.1,3.1,56,0.00,,---,0.00,VWS V14.00,2013-01-17 02:44:00,
2013-01-16 20:49:00,37.4,22.7,30.59,West,277,2.7,2.7,55,0.00,,---,0.00,VWS V14.00,2013-01-17 02:49:00,
2013-01-16 20:54:00,37.6,22.9,30.71,West,265,6.7,6.7,55,0.00,,---,0.00,VWS V14.00,2013-01-17 02:54:00,
2013-01-16 20:59:00,37.8,22.6,30.71,WNW,295,2.2,4.0,54,0.00,,---,0.00,VWS V14.00,2013-01-17 02:59:00,
2013-01-16 21:04:00,37.8,22.6,30.71,West,272,2.2,3.1,54,0.00,,---,0.00,VWS V14.00,2013-01-17 03:04:00,
2013-01-16 21:09:00,37.6,22.9,30.80,West,273,0.0,3.1,55,0.00,,---,0.00,VWS V14.00,2013-01-17 03:09:00,
2013-01-16 21:14:00,37.6,22.9,30.80,West,275,0.0,0.0,55,0.00,,---,0.00,VWS V14.00,2013-01-17 03:14:00,
2013-01-16 21:19:00,37.4,23.1,30.80,West,275,0.0,0.0,56,0.00,,---,0.00,VWS V14.00,2013-01-17 03:19:00,
2013-01-16 21:25:00,37.4,23.1,30.68,WNW,297,2.2,2.7,56,0.00,,---,0.00,VWS V14.00,2013-01-17 03:25:00,
2013-01-16 21:30:00,37.2,23.4,30.68,WNW,297,0.0,0.0,57,0.00,,---,0.00,VWS V14.00,2013-01-17 03:30:00,
2013-01-16 21:35:00,37.0,23.2,30.68,WNW,297,2.2,3.6,57,0.00,,---,0.00,VWS V14.00,2013-01-17 03:35:00,
2013-01-16 21:40:00,36.9,23.5,30.74,WNW,298,0.0,2.7,58,0.00,,---,0.00,VWS V14.00,2013-01-17 03:40:00,
2013-01-16 21:45:00,36.7,23.3,30.74,WNW,299,0.0,3.1,58,0.00,,---,0.00,VWS V14.00,2013-01-17 03:45:00,
2013-01-16 21:50:00,36.3,23.4,30.74,NW,325,3.1,3.6,59,0.00,,---,0.00,VWS V14.00,2013-01-17 03:50:00,
2013-01-16 21:55:00,36.5,24.0,30.83,West,273,2.2,3.1,60,0.00,,---,0.00,VWS V14.00,2013-01-17 03:55:00,
2013-01-16 22:00:00,36.5,24.0,30.83,West,267,2.2,2.7,60,0.00,,---,0.00,VWS V14.00,2013-01-17 04:00:00,
2013-01-16 22:05:00,36.7,24.1,30.89,WNW,288,3.1,5.4,60,0.00,,---,0.00,VWS V14.00,2013-01-17 04:05:00,
2013-01-16 22:10:00,36.9,24.3,30.89,WNW,288,2.7,3.6,60,0.00,,---,0.00,VWS V14.00,2013-01-17 04:10:00,
2013-01-16 22:15:00,36.9,24.3,30.89,WNW,282,2.7,3.6,60,0.00,,---,0.00,VWS V14.00,2013-01-17 04:15:00,
2013-01-16 22:21:00,36.7,23.7,30.80,West,272,2.7,3.6,59,0.00,,---,0.00,VWS V14.00,2013-01-17 04:21:00,
2013-01-16 22:26:00,36.7,24.1,30.80,WNW,297,3.1,3.1,60,0.00,,---,0.00,VWS V14.00,2013-01-17 04:26:00,
2013-01-16 22:31:00,36.9,24.3,30.80,WNW,298,3.1,3.1,60,0.00,,---,0.00,VWS V14.00,2013-01-17 04:31:00,
2013-01-16 22:36:00,36.9,23.9,30.83,WNW,299,2.2,3.6,59,0.00,,---,0.00,VWS V14.00,2013-01-17 04:36:00,
2013-01-16 22:41:00,36.7,24.1,30.83,West,278,2.2,3.6,60,0.00,,---,0.00,VWS V14.00,2013-01-17 04:41:00,
2013-01-16 22:46:00,36.7,24.1,30.83,WNW,284,3.1,4.0,60,0.00,,---,0.00,VWS V14.00,2013-01-17 04:46:00,
2013-01-16 22:51:00,36.7,24.1,30.89,West,271,2.2,3.6,60,0.00,,---,0.00,VWS V14.00,2013-01-17 04:51:00,
2013-01-16 22:57:00,36.7,24.1,30.89,West,266,0.0,0.0,60,0.00,,---,0.00,VWS V14.00,2013-01-17 04:57:00,
2013-01-16 23:00:00,36.5,24.0,30.89,NW,313,3.1,3.1,60,0.00,,---,0.00,VWS V14.00,2013-01-17 05:00:00,
2013-01-16 23:01:00,36.5,24.0,30.89,NW,311,4.0,4.0,60,0.00,,---,0.00,VWS V14.00,2013-01-17 05:01:00,
2013-01-16 23:02:00,36.5,24.0,30.89,NW,312,3.6,3.6,60,0.00,,---,0.00,VWS V14.00,2013-01-17 05:02:00,
2013-01-16 23:03:00,36.5,24.0,30.89,NW,313,2.7,2.7,60,0.00,,---,0.00,VWS V14.00,2013-01-17 05:03:00,
2013-01-16 23:08:00,36.5,24.0,30.95,NW,319,5.8,5.8,60,0.00,,---,0.00,VWS V14.00,2013-01-17 05:08:00,
2013-01-16 23:13:00,36.3,23.8,30.95,NW,309,3.1,3.6,60,0.00,,---,0.00,VWS V14.00,2013-01-17 05:13:00,
2013-01-16 23:18:00,36.1,24.0,30.95,NW,314,3.1,3.6,61,0.00,,---,0.00,VWS V14.00,2013-01-17 05:18:00,
2013-01-16 23:23:00,36.1,24.0,30.89,WNW,297,2.7,2.7,61,0.00,,---,0.00,VWS V14.00,2013-01-17 05:23:00,
2013-01-16 23:28:00,36.0,23.8,30.89,NW,309,4.0,4.0,61,0.00,,---,0.00,VWS V14.00,2013-01-17 05:28:00,
2013-01-16 23:33:00,35.8,24.0,30.89,NW,316,2.7,4.0,62,0.00,,---,0.00,VWS V14.00,2013-01-17 05:33:00,
2013-01-16 23:39:00,35.6,23.5,30.89,West,274,2.7,4.0,61,0.00,,---,0.00,VWS V14.00,2013-01-17 05:39:00,
2013-01-16 23:44:00,35.1,23.0,30.89,WNW,284,3.1,3.1,61,0.00,,---,0.00,VWS V14.00,2013-01-17 05:44:00,
2013-01-16 23:49:00,34.9,23.6,30.89,WNW,285,3.1,3.1,63,0.00,,---,0.00,VWS V14.00,2013-01-17 05:49:00,
2013-01-16 23:54:00,34.9,24.3,30.95,West,281,3.1,3.1,65,0.00,,---,0.00,VWS V14.00,2013-01-17 05:54:00,
2013-01-16 23:59:00,35.1,24.5,30.95,West,281,2.2,2.7,65,0.00,,---,0.00,VWS V14.00,2013-01-17 05:59:00,